Вернуться в каталог

COSMOS 1693

АктивенВоенныеPO
NORAD 16141·PAYLOAD·🇷🇺 Russia

Запущен Oct 9, 1985 с Plesetsk Cosmodrome

Loading…

Ближайшие Пролёты (ближайшие 24 часа)

TLE

СвежийSource: Space-Track

Эпоха: Sep 14, 2026, 13:59 UTC

1 16141U 85094D   26257.58320148  .00000018  00000-0  40114-4 0  9995
2 16141  82.6133 195.4204 0014609 187.8540 344.8489 12.64359080888839

Отслеживайте COSMOS 1693 в реальном времени с AllMySat

Download on the App Store